| time (UTC) | temp F | wind direction | speed knots | gust knots | rain 1hr in | rain 24hr in | rain mn in | humidity % | barometer mb |
| 20260502200005 | 60 | 150 | 3.5 | 6.1 | 0.29 | 0.29 | 0.29 | 87 | 1024.2 |
| 20260502195617 | 60 | 151 | 3.5 | 11.3 | 0.29 | 0.29 | 0.29 | 87 | 1024.6 |
| 20260502194505 | 67 | 174 | 7.0 | 11.3 | 0.06 | 0.06 | 0.06 | 75 | 1024.9 |
| 20260502193603 | 69 | 162 | 3.5 | 9.6 | 0.00 | 0.00 | 0.00 | 61 | 1024.4 |
| 20260502192703 | 69 | 167 | 2.6 | 6.1 | 0.00 | 0.00 | 0.00 | 64 | 1024.4 |
| 20260502191805 | 68 | 105 | 0.0 | 0.9 | 0.00 | 0.00 | 0.00 | 67 | 1024.2 |
| 20260502190905 | 69 | 57 | 0.0 | 1.7 | 0.00 | 0.00 | 0.00 | 65 | 1023.9 |
| 20260502190005 | 70 | 44 | 0.9 | 1.7 | 0.00 | 0.00 | 0.00 | 63 | 1023.7 |
| 20260502185405 | 71 | 43 | 0.0 | 1.7 | 0.00 | 0.00 | 0.00 | 62 | 1023.8 |
| 20260502184721 | 71 | 6 | 0.9 | 1.7 | 0.00 | 0.00 | 0.00 | 61 | 1023.8 |
| 20260502183603 | 71 | 28 | 0.9 | 1.7 | 0.00 | 0.00 | 0.00 | 60 | 1023.7 |
| 20260502182919 | 71 | 24 | 0.9 | 1.7 | 0.00 | 0.00 | 0.00 | 60 | 1023.5 |
| 20260502181805 | 72 | 29 | 0.9 | 2.6 | 0.00 | 0.00 | 0.00 | 60 | 1023.7 |
| 20260502181118 | 72 | 25 | 0.9 | 2.6 | 0.00 | 0.00 | 0.00 | 59 | 1023.7 |
| 20260502170217 | 76 | 215 | 1.7 | 2.6 | 0.00 | 0.00 | 0.00 | 52 | 1023.8 |
| 20260502163819 | 75 | 243 | 1.7 | 5.2 | 0.00 | 0.00 | 0.00 | 51 | 1024.4 |
| 20260502162703 | 75 | 38 | 0.9 | 1.7 | 0.00 | 0.00 | 0.00 | 53 | 1024.4 |
| 20260502161803 | 75 | 337 | 1.7 | 2.6 | 0.00 | 0.00 | 0.00 | 54 | 1024.5 |
| 20260502160903 | 77 | 260 | 0.9 | 2.6 | 0.00 | 0.00 | 0.00 | 51 | 1024.8 |
| 20260502160221 | 75 | 231 | 1.7 | 5.2 | 0.00 | 0.00 | 0.00 | 52 | 1024.8 |
| 20260502151805 | 74 | 235 | 0.9 | 5.2 | 0.00 | 0.00 | 0.00 | 54 | 1025.4 |
| 20260502150903 | 74 | 224 | 1.7 | 3.5 | 0.00 | 0.00 | 0.00 | 54 | 1025.5 |
| 20260502123603 | 72 | 285 | 3.5 | 7.0 | 0.00 | 0.00 | 0.00 | 57 | 1027.0 |
| 20260502122917 | 73 | 250 | 3.5 | 6.1 | 0.00 | 0.00 | 0.00 | 56 | 1027.1 |
| 20260502121805 | 73 | 249 | 3.5 | 7.0 | 0.00 | 0.00 | 0.00 | 55 | 1027.1 |
| 20260502120903 | 73 | 226 | 3.5 | 7.8 | 0.00 | 0.00 | 0.00 | 54 | 1027.1 |
| 20260502120219 | 74 | 237 | 2.6 | 7.8 | 0.00 | 0.00 | 0.00 | 54 | 1027.0 |
| 20260502115619 | 73 | 275 | 2.6 | 6.1 | 0.00 | 0.00 | 0.00 | 54 | 1027.1 |
| 20260502113603 | 72 | 201 | 4.3 | 8.7 | 0.00 | 0.00 | 0.00 | 55 | 1027.6 |
| 20260502112705 | 73 | 222 | 3.5 | 8.7 | 0.00 | 0.00 | 0.00 | 53 | 1027.5 |
| 20260502111803 | 73 | 211 | 3.5 | 8.7 | 0.00 | 0.00 | 0.00 | 53 | 1027.6 |
| 20260502110905 | 73 | 215 | 4.3 | 8.7 | 0.00 | 0.00 | 0.00 | 54 | 1027.7 |
| 20260502110005 | 72 | 222 | 5.2 | 9.6 | 0.00 | 0.00 | 0.00 | 55 | 1027.8 |
| 20260502105403 | 72 | 243 | 3.5 | 7.0 | 0.00 | 0.00 | 0.00 | 54 | 1027.9 |
| 20260502104503 | 72 | 240 | 4.3 | 7.8 | 0.00 | 0.00 | 0.00 | 54 | 1027.9 |
| 20260502103605 | 71 | 196 | 5.2 | 12.2 | 0.00 | 0.00 | 0.00 | 55 | 1028.1 |
| 20260502102705 | 72 | 199 | 2.6 | 7.8 | 0.00 | 0.00 | 0.00 | 52 | 1028.0 |
| 20260502102019 | 71 | 197 | 3.5 | 7.8 | 0.00 | 0.00 | 0.00 | 54 | 1028.0 |
| 20260502101119 | 70 | 197 | 4.3 | 9.6 | 0.00 | 0.00 | 0.00 | 53 | 1028.1 |
| 20260502090903 | 66 | 196 | 4.3 | 7.0 | 0.00 | 0.00 | 0.00 | 50 | 1028.6 |
| 20260502090218 | 66 | 193 | 4.3 | 7.0 | 0.00 | 0.00 | 0.00 | 50 | 1028.5 |
| 20260502070903 | 59 | 208 | 3.5 | 7.0 | 0.00 | 0.00 | 0.00 | 55 | 1028.8 |
| 20260502070004 | 59 | 207 | 3.5 | 7.0 | 0.00 | 0.00 | 0.00 | 54 | 1028.7 |
| 20260502065403 | 59 | 189 | 4.3 | 7.8 | 0.00 | 0.00 | 0.00 | 54 | 1028.7 |
| 20260502064505 | 59 | 200 | 5.2 | 8.7 | 0.00 | 0.00 | 0.00 | 53 | 1028.7 |
| 20260502063605 | 60 | 195 | 5.2 | 9.6 | 0.00 | 0.00 | 0.00 | 52 | 1028.4 |
| 20260502062703 | 60 | 200 | 4.3 | 8.7 | 0.00 | 0.00 | 0.00 | 50 | 1028.4 |
| 20260502062018 | 60 | 198 | 5.2 | 11.3 | 0.00 | 0.00 | 0.00 | 48 | 1028.4 |
| 20260502060905 | 60 | 197 | 7.0 | 13.0 | 0.00 | 0.00 | 0.00 | 48 | 1028.8 |
| 20260502060003 | 60 | 196 | 4.3 | 8.7 | 0.00 | 0.00 | 0.00 | 48 | 1028.7 |
| 20260502055616 | 60 | 186 | 5.2 | 11.3 | 0.00 | 0.00 | 0.00 | 48 | 1028.6 |
| 20260502054503 | 60 | 184 | 4.3 | 7.8 | 0.00 | 0.00 | 0.00 | 48 | 1028.4 |
| 20260502053605 | 60 | 200 | 4.3 | 7.8 | 0.00 | 0.00 | 0.00 | 48 | 1028.4 |
| 20260502052703 | 60 | 166 | 4.3 | 7.0 | 0.00 | 0.00 | 0.00 | 47 | 1028.2 |
| 20260502051805 | 59 | 177 | 3.5 | 6.1 | 0.00 | 0.00 | 0.00 | 48 | 1028.2 |
| 20260502051121 | 59 | 186 | 3.5 | 7.8 | 0.00 | 0.00 | 0.00 | 48 | 1028.2 |
| 20260502050005 | 58 | 179 | 2.6 | 5.2 | 0.00 | 0.00 | 0.00 | 49 | 1028.4 |
| 20260502045620 | 57 | 189 | 2.6 | 3.5 | 0.00 | 0.00 | 0.00 | 50 | 1028.5 |
| 20260502044719 | 56 | 195 | 1.7 | 3.5 | 0.00 | 0.00 | 0.00 | 51 | 1028.3 |
| 20260502043605 | 56 | 175 | 1.7 | 3.5 | 0.00 | 0.00 | 0.00 | 52 | 1028.6 |
| 20260502042705 | 56 | 178 | 2.6 | 3.5 | 0.00 | 0.00 | 0.00 | 52 | 1028.4 |
| 20260502041805 | 55 | 179 | 1.7 | 2.6 | 0.00 | 0.00 | 0.00 | 53 | 1028.6 |
| 20260502040903 | 55 | 187 | 2.6 | 3.5 | 0.00 | 0.00 | 0.00 | 53 | 1028.7 |
| 20260502040005 | 55 | 207 | 2.6 | 5.2 | 0.00 | 0.00 | 0.00 | 53 | 1028.8 |
| 20260502035620 | 55 | 193 | 2.6 | 5.2 | 0.00 | 0.00 | 0.00 | 53 | 1028.8 |
| 20260502034503 | 56 | 187 | 1.7 | 2.6 | 0.00 | 0.00 | 0.00 | 52 | 1028.8 |
| 20260502033603 | 56 | 196 | 1.7 | 2.6 | 0.00 | 0.00 | 0.00 | 51 | 1028.8 |
| 20260502032703 | 57 | 203 | 1.7 | 2.6 | 0.00 | 0.00 | 0.00 | 51 | 1028.8 |
| 20260502031803 | 57 | 195 | 1.7 | 2.6 | 0.00 | 0.00 | 0.00 | 50 | 1028.9 |
| 20260502030905 | 57 | 180 | 1.7 | 2.6 | 0.00 | 0.00 | 0.00 | 50 | 1029.0 |
| 20260502030003 | 57 | 177 | 2.6 | 3.5 | 0.00 | 0.00 | 0.00 | 50 | 1029.2 |
| 20260502025619 | 57 | 179 | 2.6 | 3.5 | 0.00 | 0.00 | 0.00 | 50 | 1029.0 |
| 20260502024718 | 58 | 184 | 2.6 | 3.5 | 0.00 | 0.00 | 0.00 | 49 | 1029.2 |
| 20260502023605 | 58 | 190 | 2.6 | 3.5 | 0.00 | 0.00 | 0.00 | 49 | 1029.4 |
| 20260502022917 | 58 | 180 | 2.6 | 5.2 | 0.00 | 0.00 | 0.00 | 48 | 1029.4 |
| 20260502021803 | 59 | 174 | 2.6 | 3.5 | 0.00 | 0.00 | 0.00 | 47 | 1029.3 |
| 20260502020905 | 59 | 181 | 1.7 | 2.6 | 0.00 | 0.00 | 0.00 | 46 | 1029.2 |
| 20260502020006 | 59 | 192 | 1.7 | 2.6 | 0.00 | 0.00 | 0.00 | 46 | 1029.3 |
| 20260502015403 | 60 | 190 | 2.6 | 5.2 | 0.00 | 0.00 | 0.00 | 46 | 1029.5 |
| 20260502014503 | 60 | 181 | 2.6 | 5.2 | 0.00 | 0.00 | 0.00 | 45 | 1029.5 |
| 20260502013603 | 60 | 184 | 2.6 | 5.2 | 0.00 | 0.00 | 0.00 | 45 | 1029.4 |
| 20260502012703 | 60 | 188 | 3.5 | 5.2 | 0.00 | 0.00 | 0.00 | 45 | 1029.4 |
| 20260502011805 | 61 | 182 | 3.5 | 7.0 | 0.00 | 0.00 | 0.00 | 45 | 1029.7 |
| 20260502011119 | 61 | 179 | 3.5 | 6.1 | 0.00 | 0.00 | 0.00 | 44 | 1029.5 |
| 20260502010005 | 61 | 189 | 2.6 | 5.2 | 0.00 | 0.00 | 0.00 | 45 | 1029.8 |
| 20260502005405 | 61 | 181 | 2.6 | 7.0 | 0.00 | 0.00 | 0.00 | 44 | 1029.9 |
| 20260502004505 | 61 | 189 | 3.5 | 6.1 | 0.00 | 0.00 | 0.00 | 44 | 1029.9 |
| 20260502003821 | 62 | 200 | 3.5 | 7.0 | 0.00 | 0.00 | 0.00 | 43 | 1030.2 |
| 20260502002916 | 62 | 202 | 4.3 | 7.0 | 0.00 | 0.00 | 0.00 | 43 | 1030.2 |
| 20260502001805 | 62 | 186 | 4.3 | 7.0 | 0.00 | 0.00 | 0.00 | 43 | 1030.3 |
| 20260502000903 | 62 | 193 | 3.5 | 7.8 | 0.00 | 0.00 | 0.00 | 43 | 1030.4 |
| 20260502000005 | 62 | 195 | 4.3 | 7.0 | 0.00 | 0.00 | 0.00 | 43 | 1030.4 |
| 20260501235403 | 62 | 183 | 4.3 | 7.0 | 0.00 | 0.00 | 0.00 | 43 | 1030.4 |
| 20260501234717 | 63 | 189 | 4.3 | 7.0 | 0.00 | 0.00 | 0.00 | 43 | 1030.5 |
| 20260501233603 | 63 | 199 | 5.2 | 8.7 | 0.00 | 0.00 | 0.00 | 42 | 1030.6 |
| 20260501232703 | 64 | 184 | 5.2 | 7.8 | 0.00 | 0.00 | 0.00 | 42 | 1030.5 |
| 20260501231803 | 64 | 173 | 5.2 | 11.3 | 0.00 | 0.00 | 0.00 | 41 | 1030.6 |
| 20260501231119 | 64 | 189 | 5.2 | 7.8 | 0.00 | 0.00 | 0.00 | 41 | 1030.7 |
| 20260501230218 | 64 | 181 | 5.2 | 7.8 | 0.00 | 0.00 | 0.00 | 40 | 1030.6 |
| 20260501225618 | 65 | 203 | 5.2 | 7.8 | 0.00 | 0.00 | 0.00 | 40 | 1030.7 |
| 20260501224503 | 64 | 182 | 3.5 | 7.0 | 0.00 | 0.00 | 0.00 | 40 | 1030.7 |
| 20260501223816 | 64 | 165 | 4.3 | 7.8 | 0.00 | 0.00 | 0.00 | 41 | 1030.7 |
| 20260501222703 | 64 | 176 | 3.5 | 5.2 | 0.00 | 0.00 | 0.00 | 41 | 1030.7 |
| 20260501221803 | 64 | 166 | 3.5 | 7.0 | 0.00 | 0.00 | 0.00 | 42 | 1030.7 |
| 20260501220903 | 64 | 167 | 3.5 | 7.0 | 0.00 | 0.00 | 0.00 | 41 | 1030.7 |
| 20260501220004 | 65 | 166 | 4.3 | 7.0 | 0.00 | 0.00 | 0.00 | 41 | 1030.8 |
| 20260501215403 | 65 | 169 | 3.5 | 7.0 | 0.00 | 0.00 | 0.00 | 40 | 1030.8 |
| 20260501214503 | 65 | 164 | 3.5 | 8.7 | 0.00 | 0.00 | 0.00 | 40 | 1030.7 |
| 20260501213603 | 66 | 175 | 3.5 | 7.0 | 0.00 | 0.00 | 0.00 | 39 | 1030.7 |
| 20260501212703 | 66 | 157 | 3.5 | 6.1 | 0.00 | 0.00 | 0.00 | 39 | 1030.8 |
| 20260501211803 | 66 | 166 | 3.5 | 8.7 | 0.00 | 0.00 | 0.00 | 39 | 1030.8 |
| 20260501210903 | 66 | 145 | 2.6 | 7.0 | 0.00 | 0.00 | 0.00 | 39 | 1030.8 |
| 20260501210003 | 66 | 159 | 3.5 | 6.1 | 0.00 | 0.00 | 0.00 | 39 | 1030.8 |
| 20260501205403 | 66 | 169 | 2.6 | 6.1 | 0.00 | 0.00 | 0.00 | 38 | 1031.0 |
| 20260501204716 | 66 | 159 | 2.6 | 6.1 | 0.00 | 0.00 | 0.00 | 38 | 1031.2 |
| 20260501203816 | 66 | 137 | 2.6 | 6.1 | 0.00 | 0.00 | 0.00 | 38 | 1031.1 |
| 20260501202703 | 67 | 147 | 1.7 | 6.1 | 0.00 | 0.00 | 0.00 | 38 | 1031.0 |
| 20260501202018 | 67 | 160 | 1.7 | 3.5 | 0.00 | 0.00 | 0.00 | 38 | 1031.2 |
| 20260501200903 | 67 | 121 | 2.6 | 6.1 | 0.00 | 0.00 | 0.00 | 39 | 1031.2 |